Regional Weather Roundup
Issued by NWS

Home | Current Version | Previous Version | Text Only | Print | Product List | Glossary Off
Versions: 1 2 3 4 5 6 7 8 9 10 11 12 13 14 15 16 17 18 19 20 21 22 23 24 25 26 27 28 29 30 31 32 33 34 35 36 37 38 39 40 41 42 43 44 45 46 47 48 49 50

000
ASUS45 KBOU 300607
RWRCO

WEATHER ROUNDUP FOR COLORADO
NATIONAL WEATHER SERVICE DENVER/BOULDER CO
1200 AM MDT TUE SEP 30 2014

NOTE: "FAIR" INDICATES FEW OR NO CLOUDS BELOW 12000 FEET WITH NO
SIGNIFICANT WEATHER AND/OR OBSTRUCTIONS TO VISIBILITY.

COZ001>005-013-030-031-300700-
...NORTHWEST COLORADO...

CITY           SKY/WX    TMP DP  RH WIND       PRES   REMARKS
CRAIG          CLOUDY    46  39  76 SW14      30.05R
HAYDEN         CLOUDY    43  37  81 W7        30.04S
MEEKER         CLOUDY    45  40  82 CALM      30.08R
MOUNT WERNER   NOT AVBL
STEAMBOAT SPGS CLOUDY    41  39  92 E5        30.05R
WALDEN         CLOUDY    37  34  87 SW15      30.02S
$$

COZ006>008-011-300700-
...WEST CENTRAL VALLEYS...

CITY           SKY/WX    TMP DP  RH WIND       PRES   REMARKS
GRAND JUNCTION MOCLDY    47  43  86 SE9       30.07R
MONTROSE       PTCLDY    42  41  96 SE5       30.12S
EAGLE          MOCLDY    43  43 100 CALM      30.09F
RIFLE          CLOUDY    47  43  86 CALM      30.08S
DELTA          LGT RAIN  48  45  89 NE3       30.10S
NUCLA          PTCLDY    45  43  93 E9        30.14S
$$

COZ017>023-064>068-300700-
...SOUTHWEST COLORADO...

CITY           SKY/WX    TMP DP  RH WIND       PRES   REMARKS
DURANGO        MOCLDY    44  39  82 E3        30.11F
CORTEZ         CLEAR     45  42  89 NE6       30.10S
PAGOSA SPRINGS CLOUDY    40  40  97 CALM      30.15F
TELLURIDE      NOT AVBL
WOLF CREEK PAS FOG       27  27 100 SW7       30.25R VSB<1/4 WCI  19
$$

COZ009-010-012-014-032>034-037-058>063-300700-
...CENTRAL COLORADO...

CITY           SKY/WX    TMP DP  RH WIND       PRES   REMARKS
ASPEN          CLOUDY    40  37  89 CALM      30.11F
BUENA VISTA    MOCLDY    44  29  55 SW7       30.05S
COPPER MTN     CLOUDY    32  27  80 W13G23    30.17F WCI  22
BERTHOUD PASS  CLOUDY    23  21  93 NW40      30.09F WCI   3
COTTONWOOD PAS MOCLDY    41  27  56 W15G33    30.09S
GUNNISON       MOCLDY    39  34  81 N7        30.15S
KREMMLING      CLOUDY    41  34  75 SW9       30.07F
LEADVILLE      CLOUDY    34  28  79 NW13G20   30.13S WCI  25
MONARCH PASS   CLOUDY    28  27  93 MISG      30.23F
SALIDA         MOCLDY    48  32  54 W17G29    30.11S
SUNLIGHT       CLOUDY    34  32  93 CALM      30.20S
WILKERSON PASS NOT AVBL
$$

COZ069>075-300700-
...SAN LUIS VALLEY/SANGRE DE CRISTO MOUNTAINS...

CITY           SKY/WX    TMP DP  RH WIND       PRES   REMARKS
ALAMOSA        CLOUDY    43  35  73 SE3       30.10S
LA VETA PASS   MOCLDY    34  30  86 S12G28    30.16F WCI  25
SAGUACHE       MOCLDY    39  36  87 NW6       30.11S
$$

COZ035-036-038>040-300700-
...NORTHERN COLORADO FRONT RANGE...

CITY           SKY/WX    TMP DP  RH WIND       PRES   REMARKS
DENVER INTL AP CLOUDY    47  44  90 S7        29.89F
DMNS CITY PARK   N/A     47  45  93 S3        29.90F
AURORA         PTCLDY    46  46 100 E5        29.91F
FRONT RANGE AP CLOUDY    48  46  93 SE5       29.90F
ERIE MUNI ARPT CLOUDY    48  46  93 S8        29.89F
BOULDER MUN AP CLOUDY    48  46  93 S5        29.88F
CENTENNIAL     CLOUDY    46  44  93 E6        29.92F
BROOMFIELD     CLOUDY    46  45  93 S6        29.91F
FORT COLLINS   CLOUDY    48  45  87 S5        29.87S
LONGMONT       CLOUDY    50  47  90 SW8       29.89F
$$

COZ041-046-047-076>085-087-088-300700-
...PIKES PEAK/PALMER DIVIDE AND SOUTHERN FOOTHILLS...

CITY           SKY/WX    TMP DP  RH WIND       PRES   REMARKS
COLO. SPRINGS  PTCLDY    48  38  68 N5        29.92F
A. F. ACADEMY  PTCLDY    45  35  67 VRB2      29.92F
ELLICOTT       NOT AVBL
FALCON         PTCLDY    42  37  79 NW9       29.94F
FORT CARSON    CLEAR     47  38  71 E2        29.90F
LIMON          CLOUDY    46  43  89 NW15G23   29.93S
MONUMENT HILL  MOCLDY    37  37 100 SW5       29.93F
TRINIDAD       CLEAR     54  34  46 S10       29.96S
$$

COZ042>045-048>051-090-091-300700-
...NORTHEAST COLORADO...

CITY           SKY/WX    TMP DP  RH WIND       PRES   REMARKS
GREELEY ARPT   CLOUDY    50  41  71 CALM      29.85F
AKRON          TSTM      48  47  96 W23G31    29.83S FOG
BURLINGTON     CLEAR     55  51  86 S22       29.83R
WRAY           MOCLDY    57  55  92 S16G26    29.76S
STERLING       LGT RAIN  52  50  93 W25G32    29.77R
HOLYOKE        CLOUDY    59  55  88 S16G24    29.74R
FORT MORGAN    LGT RAIN  49  46  90 W12       29.87R
$$

COZ086-089-092>099-300700-
...SOUTHEAST COLORADO...

CITY           SKY/WX    TMP DP  RH WIND       PRES   REMARKS
PUEBLO         PTCLDY    54  38  54 W5        29.89S
LA JUNTA       PTCLDY    56  42  59 MISG      29.87F
LAMAR          CLEAR     57  54  89 S13       29.83F
SPRINGFIELD      N/A     57  57 100 SW8       29.92S
$$


USA.gov is the U.S. government's official web portal to all federal, state and local government web resources and services.